SB KEPS @ AMSAT $ORB08038.O Orbital Elements 08038.OSCAR
HR AMSAT ORBITAL ELEMENTS FOR OSCAR SATELLITES FROM WA5QGD FORT WORTH,TX February 7, 2008 Send Subscribe/unsubscribe to KEPS at http://www.amsat.org/mailman/listinfo/keps BID: ORB08038.O TO ALL RADIO AMATEURS BT
Satellite: AO-07 Catalog number: 07530 Epoch time: 08038.65043768 Element set: 98 Inclination: 101.4849 deg RA of node: 074.4364 deg Eccentricity: 0.0012079 Arg of perigee: 156.5756 deg Mean anomaly: 203.5864 deg Mean motion: 12.53573358 rev/day Decay rate: -2.7e-07 rev/day^2 Epoch rev: 52062 Checksum: 312
Satellite: AO-10 Catalog number: 14129 Epoch time: 08038.61210448 Element set: 466 Inclination: 025.9390 deg RA of node: 231.6094 deg Eccentricity: 0.6032615 Arg of perigee: 096.7648 deg Mean anomaly: 331.0044 deg Mean motion: 02.05871726 rev/day Decay rate: -6.4e-07 rev/day^2 Epoch rev: 18541 Checksum: 289
Satellite: UO-11 Catalog number: 14781 Epoch time: 08037.85743948 Element set: 0591 Inclination: 098.1708 deg RA of node: 069.8220 deg Eccentricity: 0.0009785 Arg of perigee: 131.7073 deg Mean anomaly: 228.5002 deg Mean motion: 14.79615918 rev/day Decay rate: 2.27e-06 rev/day^2 Epoch rev: 28443 Checksum: 327
Satellite: RS-15 Catalog number: 23439 Epoch time: 08037.92731509 Element set: 0137 Inclination: 064.8209 deg RA of node: 347.3066 deg Eccentricity: 0.0151216 Arg of perigee: 147.7584 deg Mean anomaly: 213.2690 deg Mean motion: 11.27551600 rev/day Decay rate: -3.9e-07 rev/day^2 Epoch rev: 54016 Checksum: 293
Satellite: FO-29 Catalog number: 24278 Epoch time: 08037.92977031 Element set: 0709 Inclination: 098.5824 deg RA of node: 331.4049 deg Eccentricity: 0.0350428 Arg of perigee: 195.1916 deg Mean anomaly: 163.8487 deg Mean motion: 13.52934335 rev/day Decay rate: -9.4e-07 rev/day^2 Epoch rev: 56664 Checksum: 347
Satellite: SO-33 Catalog number: 25509 Epoch time: 08037.91954510 Element set: 0127 Inclination: 031.4340 deg RA of node: 338.5655 deg Eccentricity: 0.0355301 Arg of perigee: 319.4670 deg Mean anomaly: 038.0047 deg Mean motion: 14.28192201 rev/day Decay rate: 7.5e-07 rev/day^2 Epoch rev: 48483 Checksum: 288
Satellite: AO-40 Catalog number: 26609 Epoch time: 08038.23039156 Element set: 4 Inclination: 007.3869 deg RA of node: 098.6888 deg Eccentricity: 0.7927499 Arg of perigee: 049.4989 deg Mean anomaly: 356.0125 deg Mean motion: 01.25584045 rev/day Decay rate: -3.78e-06 rev/day^2 Epoch rev: 3339 Checksum: 352
Satellite: VO-52 Catalog number: 28650 Epoch time: 08037.90025221 Element set: 0851 Inclination: 097.8053 deg RA of node: 108.0281 deg Eccentricity: 0.0026610 Arg of perigee: 206.9727 deg Mean anomaly: 153.0145 deg Mean motion: 14.81419141 rev/day Decay rate: 4.83e-06 rev/day^2 Epoch rev: 14916 Checksum: 280
Satellite: PO-63 Catalog number: 29712 Epoch time: 08038.74801525 Element set: 168 Inclination: 097.8925 deg RA of node: 099.3009 deg Eccentricity: 0.0015298 Arg of perigee: 085.2956 deg Mean anomaly: 275.0010 deg Mean motion: 14.80014202 rev/day Decay rate: 6.74e-06 rev/day^2 Epoch rev: 5817 Checksum: 311
/EX SB KEPS @ AMSAT $ORB08038.D Orbital Elements 08038.MICROS
HR AMSAT ORBITAL ELEMENTS FOR THE MICROSATS FROM WA5QGD FORT WORTH,TX February 7, 2008 Send Subscribe/unsubscribe to KEPS at http://www.amsat.org/mailman/listinfo/keps BID: ORB08038.D TO ALL RADIO AMATEURS BT
Satellite: AO-16 Catalog number: 20439 Epoch time: 08037.48110236 Element set: 0246 Inclination: 098.2166 deg RA of node: 024.3646 deg Eccentricity: 0.0010301 Arg of perigee: 205.4698 deg Mean anomaly: 154.5991 deg Mean motion: 14.31783510 rev/day Decay rate: 8.0e-08 rev/day^2 Epoch rev: 94207 Checksum: 285
Satellite: LO-19 Catalog number: 20442 Epoch time: 08037.89965398 Element set: 0170 Inclination: 098.1927 deg RA of node: 033.6649 deg Eccentricity: 0.0011377 Arg of perigee: 202.6257 deg Mean anomaly: 157.4408 deg Mean motion: 14.32022412 rev/day Decay rate: -3.8e-07 rev/day^2 Epoch rev: 94228 Checksum: 313
Satellite: AO-27 Catalog number: 22825 Epoch time: 08037.51632382 Element set: 892 Inclination: 098.3663 deg RA of node: 002.5981 deg Eccentricity: 0.0007586 Arg of perigee: 293.2059 deg Mean anomaly: 066.8322 deg Mean motion: 14.29229138 rev/day Decay rate: -1.06e-06 rev/day^2 Epoch rev: 74896 Checksum: 331
Satellite: IO-26 Catalog number: 22826 Epoch time: 08037.52321157 Element set: 0595 Inclination: 098.3589 deg RA of node: 003.5749 deg Eccentricity: 0.0008235 Arg of perigee: 290.2560 deg Mean anomaly: 069.7736 deg Mean motion: 14.29477415 rev/day Decay rate: 3.0e-08 rev/day^2 Epoch rev: 74905 Checksum: 325
Satellite: PO-28 Catalog number: 22829 Epoch time: 08037.50429016 Element set: 0868 Inclination: 098.3480 deg RA of node: 004.6841 deg Eccentricity: 0.0008855 Arg of perigee: 258.6838 deg Mean anomaly: 101.3359 deg Mean motion: 14.30179746 rev/day Decay rate: 3.7e-07 rev/day^2 Epoch rev: 74930 Checksum: 329
Satellite: GO-32 Catalog number: 25397 Epoch time: 08037.63607748 Element set: 0522 Inclination: 098.3826 deg RA of node: 079.1841 deg Eccentricity: 0.0000368 Arg of perigee: 254.3504 deg Mean anomaly: 105.7632 deg Mean motion: 14.23138680 rev/day Decay rate: 1.20e-06 rev/day^2 Epoch rev: 49750 Checksum: 303
Satellite: MO-46 Catalog number: 26548 Epoch time: 08037.82669751 Element set: 0018 Inclination: 064.5550 deg RA of node: 176.7293 deg Eccentricity: 0.0014456 Arg of perigee: 342.2690 deg Mean anomaly: 017.7871 deg Mean motion: 14.83224664 rev/day Decay rate: 2.1e-07 rev/day^2 Epoch rev: 39833 Checksum: 323
Satellite: NO-44 Catalog number: 26931 Epoch time: 08037.89240687 Element set: 0802 Inclination: 067.0528 deg RA of node: 262.8874 deg Eccentricity: 0.0004688 Arg of perigee: 267.4063 deg Mean anomaly: 092.6469 deg Mean motion: 14.29511536 rev/day Decay rate: 1.6e-07 rev/day^2 Epoch rev: 33164 Checksum: 328
Satellite: SO-50 Catalog number: 27607 Epoch time: 08038.64259390 Element set: 523 Inclination: 064.5590 deg RA of node: 090.0898 deg Eccentricity: 0.0079561 Arg of perigee: 305.3766 deg Mean anomaly: 053.9936 deg Mean motion: 14.71324664 rev/day Decay rate: 4.0e-07 rev/day^2 Epoch rev: 27576 Checksum: 330
Satellite: CO-55 Catalog number: 27844 Epoch time: 08037.58452128 Element set: 0231 Inclination: 098.7183 deg RA of node: 047.6650 deg Eccentricity: 0.0010300 Arg of perigee: 132.4404 deg Mean anomaly: 227.7639 deg Mean motion: 14.20558688 rev/day Decay rate: 4.4e-07 rev/day^2 Epoch rev: 23875 Checksum: 307
Satellite: CO-57 Catalog number: 27848 Epoch time: 08037.91726272 Element set: 0185 Inclination: 098.7179 deg RA of node: 047.1171 deg Eccentricity: 0.0010195 Arg of perigee: 135.3852 deg Mean anomaly: 224.8153 deg Mean motion: 14.20370912 rev/day Decay rate: 1.6e-07 rev/day^2 Epoch rev: 23877 Checksum: 313
Satellite: AO-51 Catalog number: 28375 Epoch time: 08036.52667764 Element set: 0024 Inclination: 098.0857 deg RA of node: 068.4666 deg Eccentricity: 0.0083222 Arg of perigee: 194.8409 deg Mean anomaly: 165.0338 deg Mean motion: 14.40595643 rev/day Decay rate: -1.0e-08 rev/day^2 Epoch rev: 18930 Checksum: 324
Satellite: CO-56 Catalog number: 28941 Epoch time: 08038.70249526 Element set: 827 Inclination: 098.1037 deg RA of node: 132.3839 deg Eccentricity: 0.0190954 Arg of perigee: 152.9437 deg Mean anomaly: 208.1991 deg Mean motion: 15.49827310 rev/day Decay rate: 3.3270e-04 rev/day^2 Epoch rev: 10978 Checksum: 340
Satellite: NO-61 Catalog number: 29664 Epoch time: 07359.16654419 Element set: 738 Inclination: 051.6179 deg RA of node: 150.0690 deg Eccentricity: 0.0003189 Arg of perigee: 248.8461 deg Mean anomaly: 111.8136 deg Mean motion: 16.51627846 rev/day Decay rate: 1.4620719e-01 rev/day^2 Epoch rev: 5877 Checksum: 345
Satellite: CP4 Catalog number: 31122 Epoch time: 08037.75382598 Element set: 0256 Inclination: 098.0572 deg RA of node: 108.1355 deg Eccentricity: 0.0085950 Arg of perigee: 017.8975 deg Mean anomaly: 342.5167 deg Mean motion: 14.55084772 rev/day Decay rate: 5.50e-06 rev/day^2 Epoch rev: 04296 Checksum: 320
Satellite: CP3 Catalog number: 31128 Epoch time: 08037.70867871 Element set: 0251 Inclination: 098.0550 deg RA of node: 106.6129 deg Eccentricity: 0.0103495 Arg of perigee: 021.8466 deg Mean anomaly: 338.7079 deg Mean motion: 14.51910717 rev/day Decay rate: -4.7e-07 rev/day^2 Epoch rev: 04285 Checksum: 303
Satellite: LIBERT Catalog number: 31129 Epoch time: 08038.72443457 Element set: 734 Inclination: 098.0567 deg RA of node: 107.6171 deg Eccentricity: 0.0102590 Arg of perigee: 018.8114 deg Mean anomaly: 341.6788 deg Mean motion: 14.52001804 rev/day Decay rate: 3.38e-06 rev/day^2 Epoch rev: 4298 Checksum: 291
/EX SB KEPS @ AMSAT $ORB08038.W Orbital Elements 08038.WEATHER
HR AMSAT ORBITAL ELEMENTS FOR WEATHER SATELLITES FROM WA5QGD FORT WORTH,TX February 7, 2008 Send Subscribe/unsubscribe to KEPS at http://www.amsat.org/mailman/listinfo/keps BID: ORB08038.W TO ALL RADIO AMATEURS BT
Satellite: NOAA-10 Catalog number: 16969 Epoch time: 08037.64821848 Element set: 0996 Inclination: 098.7334 deg RA of node: 059.8122 deg Eccentricity: 0.0011923 Arg of perigee: 201.9281 deg Mean anomaly: 158.1393 deg Mean motion: 14.27350098 rev/day Decay rate: 1.03e-06 rev/day^2 Epoch rev: 11267 Checksum: 315
Satellite: NOAA-11 Catalog number: 19531 Epoch time: 08038.26961732 Element set: 30 Inclination: 098.8003 deg RA of node: 129.4216 deg Eccentricity: 0.0012304 Arg of perigee: 081.5703 deg Mean anomaly: 278.6844 deg Mean motion: 14.14863836 rev/day Decay rate: -2.05e-06 rev/day^2 Epoch rev: 99939 Checksum: 306
Satellite: NOAA-12 Catalog number: 21263 Epoch time: 08038.43939721 Element set: 536 Inclination: 098.7645 deg RA of node: 040.4158 deg Eccentricity: 0.0012997 Arg of perigee: 142.2136 deg Mean anomaly: 217.9965 deg Mean motion: 14.25515674 rev/day Decay rate: 3.6e-07 rev/day^2 Epoch rev: 86976 Checksum: 331
